Date String (YYYY-MM-DD hh:mm:ss) UTC,Instrument flags,Ambient pressure (hPa),Sample flow (lpm),Bypass flow (lpm),Sample temperature (°C),Ambient temperature (°C),ASC tube jacket temperature (°C),LED temperature (°C),Box temperature (°C),Sample RH (%),Span deviation,Mass concentration (μg/m³),Mass concentration (μg/m³),Mass concentration (μg/m³)
DateTimeUTC,F1_M11,P_M11,Q1_M11,Q2_M11,T1_M11,T2_M11,T3_M11,T4_M11,T5_M11,U1_M11,ZSPAN_M11,X2_M11,X0_M11,X1_M11
2022-02-08 19:00:00,,0829.7,5.00,0.00,24.2,23.4,00.0,32.9,26.0,06.6,0000.0,0001.19,0002.49,0000.73
2022-02-08 19:01:00,,0829.6,5.00,0.00,24.2,23.4,00.0,33.0,26.1,06.7,0000.0,0001.17,0002.41,0000.73
2022-02-08 19:02:00,,0829.5,5.00,0.00,24.2,23.4,00.0,33.0,26.1,06.4,0000.0,0001.17,0002.42,0000.73
2022-02-08 19:03:00,,0829.6,5.00,0.00,24.2,23.3,00.0,33.0,26.1,06.5,0000.0,0001.16,0002.38,0000.73
2022-02-08 19:04:00,,0829.6,5.00,0.00,24.2,23.4,00.0,33.0,26.1,06.1,0000.0,0001.14,0002.35,0000.72
2022-02-08 19:05:00,,0829.6,5.00,0.00,24.3,23.3,00.0,33.0,26.1,06.1,0000.0,0001.13,0002.33,0000.71
2022-02-08 19:06:00,,0829.6,5.00,0.00,24.3,23.4,00.0,33.1,26.1,07.0,0000.0,0001.10,0002.29,0000.71
2022-02-08 19:07:00,,0829.6,4.99,0.00,24.3,23.4,00.0,33.1,26.1,06.9,0000.0,0001.09,0002.13,0000.70
2022-02-08 19:08:00,,0829.6,5.02,0.00,24.3,23.4,00.0,33.1,26.1,07.0,0000.0,0001.05,0001.95,0000.69
2022-02-08 19:09:00,,0829.6,5.00,0.00,24.3,23.3,00.0,33.1,26.1,06.4,0000.0,0001.02,0001.90,0000.69
2022-02-08 19:10:00,,0829.6,5.00,0.00,24.3,23.3,00.0,33.1,26.1,06.1,0000.0,0000.99,0002.43,0000.68
2022-02-08 19:11:00,,0829.7,5.00,0.00,24.3,23.3,00.0,33.1,26.1,06.3,0000.0,0000.95,0002.52,0000.68
2022-02-08 19:12:00,,0829.5,4.98,0.00,24.3,23.4,00.0,33.2,26.2,07.0,0000.0,0000.93,0002.40,0000.68
2022-02-08 19:13:00,,0829.5,5.01,0.00,24.3,23.4,00.0,33.2,26.2,06.7,0000.0,0000.94,0002.84,0000.67
2022-02-08 19:14:00,,0829.5,4.99,0.00,24.4,23.4,00.0,33.2,26.2,07.0,0000.0,0000.93,0003.55,0000.67
2022-02-08 19:15:00,,0829.5,5.01,0.00,24.4,23.4,00.0,33.2,26.2,07.4,0000.0,0000.95,0003.56,0000.67
2022-02-08 19:16:00,,0829.5,5.00,0.00,24.4,23.3,00.0,33.2,26.1,07.8,0000.0,0001.00,0003.73,0000.70
2022-02-08 19:17:00,,0829.6,5.00,0.00,24.4,23.3,00.0,33.2,26.1,06.8,0000.0,0001.04,0003.81,0000.72
2022-02-08 19:18:00,,0829.6,5.00,0.00,24.4,23.4,00.0,33.2,26.2,06.4,0000.0,0001.06,0004.44,0000.74
2022-02-08 19:19:00,,0829.6,5.00,0.00,24.4,23.5,00.0,33.2,26.2,07.1,0000.0,0001.10,0004.77,0000.76
2022-02-08 19:20:00,,0829.5,4.99,0.00,24.4,23.5,00.0,33.3,26.3,06.7,0000.0,0001.13,0004.88,0000.78
2022-02-08 19:21:00,,0829.5,5.01,0.00,24.4,23.5,00.0,33.3,26.3,06.5,0000.0,0001.16,0004.66,0000.81
2022-02-08 19:22:00,,0829.5,5.00,0.00,24.5,23.5,00.0,33.3,26.3,07.0,0000.0,0001.19,0004.64,0000.82
2022-02-08 19:23:00,,0829.5,5.00,0.00,24.5,23.6,00.0,33.3,26.3,07.3,0000.0,0001.23,0005.59,0000.84
2022-02-08 19:24:00,,0829.5,5.02,0.00,24.5,23.6,00.0,33.3,26.3,06.2,0000.0,0001.28,0005.55,0000.86
2022-02-08 19:25:00,,0829.6,4.99,0.00,24.5,23.6,00.0,33.3,26.3,06.3,0000.0,0001.35,0004.83,0000.87
2022-02-08 19:26:00,,0829.5,5.00,0.00,24.5,23.6,00.0,33.3,26.4,07.0,0000.0,0001.38,0005.43,0000.90
2022-02-08 19:27:00,,0829.5,5.01,0.00,24.6,23.7,00.0,33.4,26.4,06.3,0000.0,0001.38,0006.34,0000.88
2022-02-08 19:28:00,,0829.5,4.99,0.00,24.6,23.7,00.0,33.4,26.4,06.2,0000.0,0001.40,0006.59,0000.87
2022-02-08 19:29:00,,0829.5,5.01,0.00,24.6,23.7,00.0,33.4,26.4,06.3,0000.0,0001.36,0006.04,0000.86
2022-02-08 19:30:00,,0829.5,4.99,0.00,24.6,23.7,00.0,33.4,26.4,06.2,0000.0,0001.30,0006.24,0000.83
2022-02-08 19:31:00,,0829.5,5.01,0.00,24.6,23.7,00.0,33.4,26.4,06.4,0000.0,0001.26,0006.67,0000.81
2022-02-08 19:32:00,,0829.5,5.00,0.00,24.6,23.6,00.0,33.4,26.4,05.8,0000.0,0001.22,0006.62,0000.79
2022-02-08 19:33:00,,0829.5,4.99,0.00,24.6,23.6,00.0,33.4,26.4,06.1,0000.0,0001.20,0006.33,0000.78
2022-02-08 19:34:00,,0829.5,5.02,0.00,24.6,23.6,00.0,33.5,26.4,06.3,0000.0,0001.18,0005.35,0000.77
2022-02-08 19:35:00,,0829.5,5.00,0.00,24.6,23.6,00.0,33.5,26.4,06.0,0000.0,0001.13,0005.13,0000.75
2022-02-08 19:36:00,,0829.6,4.99,0.00,24.6,23.6,00.0,33.5,26.4,06.4,0000.0,0001.07,0004.96,0000.75
2022-02-08 19:37:00,,0829.6,5.00,0.00,24.7,23.6,00.0,33.5,26.4,06.4,0000.0,0001.02,0004.39,0000.72
2022-02-08 19:38:00,,0829.6,4.98,0.00,24.7,23.6,00.0,33.5,26.4,06.3,0000.0,0000.97,0003.43,0000.72
2022-02-08 19:39:00,,0829.6,5.01,0.00,24.7,23.7,00.0,33.5,26.5,06.0,0000.0,0000.89,0002.82,0000.71
2022-02-08 19:40:00,,0829.6,5.00,0.00,24.7,23.7,00.0,33.5,26.5,06.7,0000.0,0000.91,0002.88,0000.70
2022-02-08 19:41:00,,0829.6,4.99,0.00,24.7,23.7,00.0,33.5,26.5,06.5,0000.0,0000.95,0002.63,0000.72
2022-02-08 19:42:00,,0829.7,5.01,0.00,24.7,23.7,00.0,33.6,26.5,05.8,0000.0,0000.95,0001.62,0000.74
2022-02-08 19:43:00,,0829.7,4.99,0.00,24.7,23.8,00.0,33.6,26.6,06.5,0000.0,0000.96,0001.56,0000.75
2022-02-08 19:44:00,,0829.7,5.01,0.00,24.8,23.8,00.0,33.6,26.6,06.5,0000.0,0000.99,0001.48,0000.76
2022-02-08 19:45:00,,0829.6,5.00,0.00,24.8,23.8,00.0,33.6,26.6,07.0,0000.0,0001.07,0002.79,0000.78
2022-02-08 19:46:00,,0829.8,5.01,0.00,24.8,23.9,00.0,33.6,26.7,06.8,0000.0,0001.17,0003.28,0000.81
2022-02-08 19:47:00,,0829.8,5.00,0.00,24.8,23.9,00.0,33.6,26.7,07.0,0000.0,0001.21,0003.33,0000.84
2022-02-08 19:48:00,,0829.8,4.99,0.00,24.8,24.0,00.0,33.7,26.7,06.6,0000.0,0001.28,0003.47,0000.86
2022-02-08 19:49:00,,0829.8,5.02,0.00,24.9,24.0,00.0,33.7,26.8,06.8,0000.0,0001.33,0003.53,0000.89
2022-02-08 19:50:00,,0829.8,4.99,0.00,24.9,24.1,00.0,33.7,26.8,06.9,0000.0,0001.40,0004.63,0000.92
2022-02-08 19:51:00,,0829.8,5.02,0.00,24.9,24.1,00.0,33.7,26.8,07.0,0000.0,0001.42,0004.88,0000.95
2022-02-08 19:52:00,,0829.8,4.99,0.00,25.0,24.1,00.0,33.7,26.8,07.1,0000.0,0001.45,0004.92,0000.98
2022-02-08 19:53:00,,0829.8,4.99,0.00,25.0,24.2,00.0,33.7,26.8,07.4,0000.0,0001.52,0005.07,0000.99
2022-02-08 19:54:00,,0829.8,5.00,0.00,25.0,24.2,00.0,33.8,26.9,07.7,0000.0,0001.60,0005.27,0001.02
2022-02-08 19:55:00,,0829.8,4.98,0.00,25.0,24.2,00.0,33.8,26.9,07.6,0000.0,0001.66,0005.40,0001.04
2022-02-08 19:56:00,,0829.8,5.01,0.00,25.1,24.3,00.0,33.8,26.9,07.4,0000.0,0001.64,0004.19,0001.06
2022-02-08 19:57:00,,0829.8,4.99,0.00,25.1,24.3,00.0,33.8,27.0,07.1,0000.0,0001.65,0004.02,0001.06
2022-02-08 19:58:00,,0829.8,5.01,0.00,25.1,24.3,00.0,33.9,27.0,07.1,0000.0,0001.68,0004.07,0001.06
2022-02-08 19:59:00,,0829.8,4.99,0.00,25.1,24.4,00.0,33.9,27.0,07.0,0000.0,0001.66,0004.03,0001.07
